Location: Newark
(54.6833°N, 25.2833°E)
Time: 17:38:55
(UTC+00:00)

A-11 Canister half - Pass Details

Date: 26 January 2021
Orbit: 1525 x 1684 km, 47.3° (Epoch: 05 March)

Event Time Altitude Azimuth Distance (km) Brightness Sun altitude
Rises 20:00:29 0° 282° (WNW) 4,781 12.3 -43.8°
Reaches altitude 10° 20:05:45 10° 259° (W) 3,827 11.4 -44.4°
Maximum altitude 20:09:50 13° 234° (SW) 3,578 11.0 -44.9°
Enters shadow 20:11:05 13° 225° (SW) 3,611 10.9 -45.0°
